This is the latest recevied weather packets stored in our database for station/object DB0HOL-4. If no packets are shown the sender has not sent any weather packets the latest 1 day(s).
| Time | Temp. | Humidity | Pressure | Rain* | Wind** | Luminosity | Snow |
|---|---|---|---|---|---|---|---|
| 1778070397 | 6.67° C | 99% | 1004.4 hPa | 0 mm | - | 880 W/m² | - |
| 1778063197 | 6.67° C | 99% | 1003.7 hPa | 0 mm | - | 854 W/m² | - |
| 1778061397 | 7.22° C | 99% | 1003.3 hPa | 0 mm | - | 420 W/m² | - |
| 1778057797 | 6.67° C | 99% | 1003.3 hPa | 0 mm | - | 685 W/m² | - |
| 1778055997 | 6.67° C | 99% | 1003 hPa | 0 mm | - | 520 W/m² | - |
| 1778054197 | 7.22° C | 99% | 1003 hPa | 0 mm | - | 503 W/m² | - |
| 1778050598 | 7.22° C | 99% | 1003 hPa | 0 mm | - | 251 W/m² | - |
| 1778048797 | 7.78° C | 99% | 1002.7 hPa | 0 mm | - | 138 W/m² | - |
| 1778046997 | 7.78° C | 99% | 1003 hPa | 0 mm | - | 68 W/m² | - |
| 1778045198 | 7.78° C | 99% | 1003 hPa | 0 mm | - | 73 W/m² | - |
| 1778043396 | 8.33° C | 99% | 1003 hPa | 0 mm | - | 21 W/m² | - |
| 1778041597 | 8.33° C | 99% | 1003 hPa | 0 mm | - | 0 W/m² | - |
| 1778039797 | 8.33° C | 99% | 1003 hPa | 0 mm | - | 0 W/m² | - |
| 1778037997 | 8.33° C | 99% | 1003.7 hPa | 0 mm | - | 0 W/m² | - |
| 1778036260 | 8.89° C | 99% | 1003.7 hPa | 0 mm | - | 0 W/m² | - |
| 1778036197 | 8.89° C | 99% | 1003.7 hPa | 0 mm | - | 0 W/m² | - |
| 1778034398 | 8.89° C | 99% | 1004 hPa | 0 mm | - | 0 W/m² | - |
| 1778032597 | 8.89° C | 99% | 1004 hPa | 0 mm | - | 0 W/m² | - |
| 1778030797 | 8.89° C | 99% | 1004.4 hPa | 0 mm | - | 0 W/m² | - |
| 1778028997 | 8.89° C | 99% | 1004.4 hPa | 0 mm | - | 0 W/m² | - |
| 1778027197 | 8.89° C | 99% | 1004.7 hPa | 0 mm | - | 0 W/m² | - |
| 1778018197 | 10° C | 99% | 1005.4 hPa | 0 mm | - | 0 W/m² | - |
| 1778009197 | 10.56° C | 99% | 1005.4 hPa | 0 mm | - | 0 W/m² | - |
| 1778007397 | 10.56° C | 99% | 1005.4 hPa | 0 mm | - | 4 W/m² | - |
| 1778001997 | 11.11° C | 99% | 1005.7 hPa | 0 mm | - | 152 W/m² | - |
* Rain latest hour (hover to see other rain measurements)
** Current wind speed in m/s (hover to see current wind gust speed)